• In Austria
  • List of Countries
  • For 7 days
  • Water Temperature
  • Satellite Maps
  • Weather Map
  • News
  • Weather Widgets
  • user-avatar
    Login

    Hourly Weather Jablonna

    Today, 19 April, Thursday

    Time Temperature Precipitation Wind Pressure Humidity
    00:00 +14°C° 0 mm 1 mps 766 mmHg 77%
    01:00 +13°C° 0 mm 2 mps 766 mmHg 82%
    02:00 +13°C° 0 mm 1 mps 766 mmHg 84%
    03:00 +12°C° 0 mm 1 mps 766 mmHg 87%
    04:00 +12°C° 0 mm 1 mps 766 mmHg 89%
    05:00 +13°C° 0 mm 1 mps 766 mmHg 86%
    06:00 +14°C° 0 mm 1 mps 766 mmHg 83%
    07:00 +15°C° 0 mm 1 mps 766 mmHg 79%
    08:00 +18°C° 0 mm 1 mps 766 mmHg 73%
    09:00 +20°C° 0 mm 1 mps 766 mmHg 67%
    10:00 +20°C° 0 mm 2 mps 766 mmHg 60%
    11:00 +21°C° 0 mm 2 mps 766 mmHg 57%
    12:00 +23°C° 0 mm 2 mps 766 mmHg 54%
    13:00 +24°C° 0 mm 3 mps 765 mmHg 51%
    14:00 +25°C° 0 mm 3 mps 765 mmHg 51%
    15:00 +25°C° 0 mm 3 mps 765 mmHg 51%
    16:00 +25°C° 0 mm 3 mps 765 mmHg 51%
    17:00 +22°C° 0 mm 3 mps 764 mmHg 58%
    18:00 +20°C° 0 mm 2 mps 764 mmHg 65%
    19:00 +18°C° 0 mm 2 mps 764 mmHg 72%
    20:00 +17°C° 0 mm 2 mps 764 mmHg 75%
    21:00 +16°C° 0 mm 2 mps 765 mmHg 78%
    22:00 +15°C° 0 mm 2 mps 765 mmHg 81%
    23:00 +15°C° 0 mm 2 mps 765 mmHg 82%

    Tomorrow, 20 April, Friday

    Time Temperature Precipitation Wind Pressure Humidity
    00:00 +14°C° 0 mm 2 mps 765 mmHg 83%
    01:00 +13°C° 0 mm 2 mps 765 mmHg 84%
    02:00 +13°C° 0 mm 2 mps 765 mmHg 84%
    03:00 +12°C° 0 mm 2 mps 764 mmHg 85%
    04:00 +10°C° 0 mm 2 mps 764 mmHg 85%
    05:00 +12°C° 0 mm 2 mps 764 mmHg 81%
    06:00 +13°C° 0 mm 2 mps 764 mmHg 77%
    07:00 +14°C° 0 mm 2 mps 764 mmHg 73%
    08:00 +16°C° 0 mm 2 mps 764 mmHg 67%
    09:00 +18°C° 0 mm 2 mps 764 mmHg 61%
    10:00 +20°C° 0 mm 2 mps 764 mmHg 55%
    11:00 +21°C° 0 mm 3 mps 763 mmHg 51%
    12:00 +22°C° 0 mm 3 mps 763 mmHg 48%
    13:00 +24°C° 0 mm 3 mps 762 mmHg 44%
    14:00 +25°C° 0 mm 3 mps 762 mmHg 45%
    15:00 +25°C° 0 mm 3 mps 761 mmHg 45%
    16:00 +25°C° 0 mm 3 mps 761 mmHg 46%
    17:00 +22°C° 0 mm 3 mps 760 mmHg 52%
    18:00 +20°C° 0 mm 3 mps 760 mmHg 59%
    19:00 +18°C° 0 mm 3 mps 759 mmHg 65%
    20:00 +18°C° 0 mm 3 mps 759 mmHg 66%
    21:00 +17°C° 0 mm 3 mps 759 mmHg 67%
    22:00 +16°C° 0 mm 3 mps 759 mmHg 68%
    23:00 +16°C° 0 mm 3 mps 758 mmHg 70%

    Day after tomorrow, 21 April, Saturday

    Time Temperature Precipitation Wind Pressure Humidity
    00:00 +16°C° 0 mm 3 mps 758 mmHg 73%
    01:00 +14°C° 0 mm 3 mps 758 mmHg 76%
    02:00 +14°C° 0 mm 3 mps 757 mmHg 79%
    03:00 +14°C° 0 mm 3 mps 757 mmHg 82%
    04:00 +14°C° 0 mm 3 mps 757 mmHg 85%
    05:00 +14°C° 0 mm 3 mps 757 mmHg 83%
    06:00 +16°C° 0 mm 3 mps 757 mmHg 82%
    07:00 +17°C° 0 mm 3 mps 757 mmHg 81%
    08:00 +18°C° 0 mm 4 mps 758 mmHg 74%
    09:00 +19°C° 0 mm 4 mps 758 mmHg 67%
    10:00 +20°C° 0 mm 4 mps 758 mmHg 60%
    11:00 +21°C° 0 mm 4 mps 758 mmHg 55%
    12:00 +22°C° 0 mm 4 mps 758 mmHg 50%
    13:00 +22°C° 0 mm 5 mps 758 mmHg 45%
    14:00 +22°C° 0 mm 5 mps 758 mmHg 44%
    15:00 +21°C° 0 mm 5 mps 757 mmHg 43%
    16:00 +21°C° 0 mm 5 mps 757 mmHg 42%
    17:00 +19°C° 0 mm 4 mps 757 mmHg 47%
    18:00 +17°C° 0 mm 4 mps 758 mmHg 52%
    19:00 +14°C° 0 mm 3 mps 758 mmHg 56%
    20:00 +12°C° 0 mm 3 mps 758 mmHg 59%
    21:00 +12°C° 0 mm 2 mps 758 mmHg 61%
    22:00 +10°C° 0 mm 2 mps 758 mmHg 64%
    23:00 +9°C° 0 mm 2 mps 758 mmHg 66%

    22 April, Sunday

    Time Temperature Precipitation Wind Pressure Humidity
    00:00 +10°C° 0 mm 1 mps 758 mmHg 68%
    01:00 +9°C° 0 mm 1 mps 758 mmHg 70%
    02:00 +9°C° 0 mm 1 mps 758 mmHg 71%
    03:00 +8°C° 0 mm 1 mps 758 mmHg 73%
    04:00 +7°C° 0 mm 0 mps 758 mmHg 75%
    05:00 +8°C° 0 mm 0 mps 757 mmHg 71%
    06:00 +9°C° 0 mm 0 mps 757 mmHg 67%
    07:00 +12°C° 0 mm 1 mps 757 mmHg 64%
    08:00 +14°C° 0 mm 1 mps 757 mmHg 58%
    09:00 +15°C° 0 mm 1 mps 757 mmHg 52%
    10:00 +18°C° 0 mm 1 mps 757 mmHg 46%
    11:00 +20°C° 0 mm 1 mps 756 mmHg 43%
    12:00 +21°C° 0 mm 1 mps 756 mmHg 39%
    13:00 +22°C° 0 mm 1 mps 755 mmHg 36%
    14:00 +22°C° 0 mm 1 mps 755 mmHg 36%
    15:00 +22°C° 0 mm 1 mps 754 mmHg 35%
    16:00 +22°C° 0 mm 1 mps 754 mmHg 35%
    17:00 +21°C° 0 mm 1 mps 753 mmHg 42%
    18:00 +18°C° 0 mm 2 mps 753 mmHg 48%
    19:00 +16°C° 0 mm 2 mps 752 mmHg 54%
    20:00 +15°C° 0 mm 2 mps 752 mmHg 55%
    21:00 +14°C° 0 mm 3 mps 752 mmHg 55%
    22:00 +13°C° 0 mm 3 mps 752 mmHg 56%
    23:00 +13°C° 0 mm 3 mps 751 mmHg 57%

    23 April, Monday

    Time Temperature Precipitation Wind Pressure Humidity
    00:00 +13°C° 0 mm 3 mps 751 mmHg 59%
    01:00 +12°C° 0 mm 3 mps 750 mmHg 60%
    02:00 +12°C° 0.2 mm 3 mps 750 mmHg 66%
    03:00 +12°C° 0.2 mm 3 mps 749 mmHg 71%
    04:00 +12°C° 0.2 mm 3 mps 748 mmHg 76%
    05:00 +13°C° 0.2 mm 3 mps 748 mmHg 78%
    06:00 +14°C° 0.2 mm 4 mps 748 mmHg 81%
    07:00 +15°C° 0.2 mm 4 mps 747 mmHg 83%
    08:00 +17°C° 0.4 mm 5 mps 747 mmHg 79%
    09:00 +19°C° 0.4 mm 6 mps 747 mmHg 75%
    10:00 +20°C° 0.4 mm 6 mps 747 mmHg 70%
    11:00 +20°C° 0.5 mm 7 mps 747 mmHg 69%
    12:00 +20°C° 0.5 mm 7 mps 747 mmHg 68%
    13:00 +20°C° 0.5 mm 7 mps 747 mmHg 66%
    14:00 +18°C° 0.3 mm 7 mps 748 mmHg 66%
    15:00 +19°C° 0.3 mm 6 mps 748 mmHg 65%
    16:00 +17°C° 0.3 mm 6 mps 748 mmHg 64%
    17:00 +16°C° 0.1 mm 5 mps 748 mmHg 69%
    18:00 +14°C° 0.1 mm 4 mps 748 mmHg 74%
    19:00 +13°C° 0.1 mm 4 mps 749 mmHg 78%
    20:00 +13°C° 0 mm 4 mps 749 mmHg 79%
    21:00 +12°C° 0 mm 4 mps 749 mmHg 79%
    22:00 +12°C° 0 mm 4 mps 750 mmHg 79%
    23:00 +11°C° 0 mm 4 mps 749 mmHg 80%

    24 April, Tuesday

    Time Temperature Precipitation Wind Pressure Humidity
    00:00 +11°C° 0 mm 4 mps 749 mmHg 82%
    01:00 +10°C° 0 mm 4 mps 749 mmHg 84%
    02:00 +10°C° 0.1 mm 4 mps 748 mmHg 85%
    03:00 +10°C° 0.1 mm 4 mps 748 mmHg 86%
    04:00 +10°C° 0.1 mm 4 mps 748 mmHg 87%
    05:00 +9°C° 0.6 mm 5 mps 747 mmHg 86%
    06:00 +10°C° 0.6 mm 6 mps 747 mmHg 86%
    07:00 +10°C° 0.6 mm 6 mps 747 mmHg 86%
    08:00 +11°C° 0.8 mm 7 mps 747 mmHg 81%
    09:00 +11°C° 0.8 mm 7 mps 747 mmHg 75%
    10:00 +12°C° 0.8 mm 8 mps 748 mmHg 70%
    11:00 +12°C° 0.1 mm 8 mps 748 mmHg 65%
    12:00 +13°C° 0.1 mm 8 mps 749 mmHg 60%
    13:00 +13°C° 0.1 mm 8 mps 749 mmHg 55%
    14:00 +14°C° 0.1 mm 7 mps 750 mmHg 56%
    15:00 +14°C° 0.1 mm 6 mps 750 mmHg 57%
    16:00 +14°C° 0.1 mm 6 mps 750 mmHg 58%
    17:00 +13°C° 0.1 mm 5 mps 750 mmHg 62%
    18:00 +12°C° 0.1 mm 4 mps 750 mmHg 66%
    19:00 +11°C° 0.1 mm 3 mps 750 mmHg 70%
    20:00 +11°C° 0 mm 3 mps 750 mmHg 72%
    21:00 +10°C° 0 mm 3 mps 750 mmHg 74%
    22:00 +10°C° 0 mm 3 mps 751 mmHg 77%
    23:00 +10°C° 0 mm 3 mps 750 mmHg 78%
    Show more